WX6HNX-3 Weather Reports


time (UTC)temp
F
wind
direction
speed
knots
gust
knots
rain 1hr
in
rain 24hr
in
rain mn
in
humidity
%
barometer
mb
20190424175352 85 294 2.6 6.1 0.00 0.00 0.00 28 1014.6
20190424175055 85 278 1.7 6.1 0.00 0.00 0.00 28 1014.6
20190424174753 85 220 1.7 5.2 0.00 0.00 0.00 29 1014.6
20190424174454 84 252 2.6 5.2 0.00 0.00 0.00 28 1014.7
20190424174152 84 202 2.6 5.2 0.00 0.00 0.00 28 1014.7
20190424173256 84 340 1.7 6.1 0.00 0.00 0.00 28 1014.6
20190424172956 84 310 0.9 6.1 0.00 0.00 0.00 27 1014.6
20190424172656 84 272 3.5 6.1 0.00 0.00 0.00 26 1014.7
20190424172355 84 263 1.7 5.2 0.00 0.00 0.00 26 1014.7
20190424172055 84 257 2.6 5.2 0.00 0.00 0.00 27 1014.7
20190424171757 84 220 1.7 4.3 0.00 0.00 0.00 28 1014.7
20190424171456 84 218 1.7 4.3 0.00 0.00 0.00 28 1014.6
20190424171159 84 170 1.7 4.3 0.00 0.00 0.00 29 1014.6
20190424170847 84 170 1.7 6.1 0.00 0.00 0.00 28 1014.7
20190424170547 84 188 1.7 7.8 0.00 0.00 0.00 28 1014.7
20190424170247 84 102 1.7 7.8 0.00 0.00 0.00 29 1014.7
20190424165647 83 154 0.9 6.1 0.00 0.00 0.00 31 1014.7
20190424165346 83 0 0.0 6.1 0.00 0.00 0.00 30 1014.6
20190424165046 83 157 3.5 6.1 0.00 0.00 0.00 31 1014.6
20190424164747 83 150 2.6 5.2 0.00 0.00 0.00 32 1014.6
20190424164450 83 145 0.9 5.2 0.00 0.00 0.00 32 1014.8
20190424164145 82 134 1.7 5.2 0.00 0.00 0.00 31 1014.8
20190424163845 82 168 1.7 6.1 0.00 0.00 0.00 32 1014.8
20190424163546 82 158 0.9 6.1 0.00 0.00 0.00 33 1014.7
20190424162947 82 173 2.6 7.0 0.00 0.00 0.00 34 1014.7
20190424162646 82 148 2.6 7.0 0.00 0.00 0.00 32 1014.7
20190424162346 82 134 3.5 7.0 0.00 0.00 0.00 32 1014.7
20190424162058 81 153 1.7 5.2 0.00 0.00 0.00 32 1014.7
20190424161746 81 154 2.6 5.2 0.00 0.00 0.00 34 1014.7
20190424161448 81 153 1.7 5.2 0.00 0.00 0.00 33 1014.6
20190424161146 81 143 1.7 3.5 0.00 0.00 0.00 34 1014.6
20190424160645 80 159 2.6 6.1 0.00 0.00 0.00 35 1014.6
20190424160348 80 136 1.7 6.1 0.00 0.00 0.00 35 1014.6
20190424160045 80 137 2.6 6.1 0.00 0.00 0.00 35 1014.7
20190424155745 79 135 2.6 4.3 0.00 0.00 0.00 35 1014.6
20190424154845 78 134 1.7 3.5 0.00 0.00 0.00 37 1014.7
20190424154547 77 93 0.9 2.6 0.00 0.00 0.00 38 1014.7
20190424154246 76 0 0.0 1.7 0.00 0.00 0.00 38 1014.7
20190424153646 74 52 0.9 1.7 0.00 0.00 0.00 41 1014.8
20190424153049 73 0 0.0 0.9 0.00 0.00 0.00 41 1014.7
20190424152744 73 0 0.0 0.9 0.00 0.00 0.00 43 1014.8
20190424152445 72 0 0.0 1.7 0.00 0.00 0.00 44 1014.7
20190424152146 72 0 0.0 1.7 0.00 0.00 0.00 46 1014.7
20190424151844 71 0 0.0 1.7 0.00 0.00 0.00 47 1014.7
20190424151545 71 0 0.0 1.7 0.00 0.00 0.00 47 1014.7
20190424151244 70 0 0.0 1.7 0.00 0.00 0.00 48 1014.7
20190424150944 70 336 0.9 1.7 0.00 0.00 0.00 48 1014.7
20190424150646 69 0 0.0 0.9 0.00 0.00 0.00 49 1014.7
20190424150346 69 0 0.0 0.0 0.00 0.00 0.00 49 1014.7
20190424150049 68 0 0.0 0.9 0.00 0.00 0.00 49 1014.6
20190424145744 68 0 0.0 0.9 0.00 0.00 0.00 50 1014.7
20190424145447 67 0 0.0 0.9 0.00 0.00 0.00 50 1014.7
20190424145145 67 0 0.0 0.9 0.00 0.00 0.00 50 1014.7
20190424144844 66 0 0.0 0.9 0.00 0.00 0.00 51 1014.6
20190424144244 65 0 0.0 0.0 0.00 0.00 0.00 53 1014.7
20190424143945 65 0 0.0 0.0 0.00 0.00 0.00 54 1014.7
20190424143645 64 0 0.0 0.9 0.00 0.00 0.00 57 1014.6
20190424143344 63 0 0.0 0.9 0.00 0.00 0.00 56 1014.7
20190424143044 62 0 0.0 0.9 0.00 0.00 0.00 58 1014.6
20190424142628 61 324 0.9 1.7 0.00 0.00 0.00 59 1014.6
20190424142328 61 323 0.9 1.7 0.00 0.00 0.00 59 1014.6
20190424142030 60 0 0.0 1.7 0.00 0.00 0.00 58 1014.6
20190424141730 59 0 0.0 1.7 0.00 0.00 0.00 58 1014.6
20190424141129 58 342 0.9 1.7 0.00 0.00 0.00 58 1014.6
20190424140530 58 0 0.0 0.0 0.00 0.00 0.00 57 1014.5
20190424135928 58 0 0.0 0.9 0.00 0.00 0.00 57 1014.4
20190424135631 58 0 0.0 1.7 0.00 0.00 0.00 56 1014.4
20190424135328 58 0 0.0 1.7 0.00 0.00 0.00 56 1014.4
20190424135028 58 0 0.0 1.7 0.00 0.00 0.00 57 1014.4
20190424134428 58 346 0.9 1.7 0.00 0.00 0.00 58 1014.3
20190424134128 58 0 0.0 0.9 0.00 0.00 0.00 59 1014.2
20190424133529 58 0 0.0 2.6 0.00 0.00 0.00 60 1014.2
20190424133228 58 0 0.0 2.6 0.00 0.00 0.00 60 1014.1
20190424132928 57 346 0.9 2.6 0.00 0.00 0.00 61 1014.1
20190424132629 57 336 0.9 2.6 0.00 0.00 0.00 61 1014.0
20190424132030 57 0 0.0 1.7 0.00 0.00 0.00 58 1014.0
20190424131728 58 330 0.9 1.7 0.00 0.00 0.00 57 1014.0
20190424131429 58 0 0.0 1.7 0.00 0.00 0.00 56 1014.0
20190424131129 58 0 0.0 0.0 0.00 0.00 0.00 55 1013.9
20190424130528 59 0 0.0 0.0 0.00 0.00 0.00 58 1013.9
20190424130228 59 0 0.0 2.6 0.00 0.00 0.00 57 1013.9
20190424125929 59 0 0.0 3.5 0.00 0.00 0.00 58 1013.9
20190424125630 59 0 0.0 3.5 0.00 0.00 0.00 58 1013.8
20190424125329 59 330 1.7 3.5 0.00 0.00 0.00 59 1013.8
20190424125029 58 336 2.6 3.5 0.00 0.00 0.00 59 1013.8
20190424124635 58 317 2.6 3.5 0.00 0.00 0.00 59 1013.7
20190424124335 58 318 1.7 3.5 0.00 0.00 0.00 57 1013.7
20190424124035 58 347 1.7 2.6 0.00 0.00 0.00 53 1013.7
20190424123435 59 0 0.0 2.6 0.00 0.00 0.00 51 1013.7
20190424123135 60 0 0.0 2.6 0.00 0.00 0.00 51 1013.6
20190424122835 60 347 0.9 2.6 0.00 0.00 0.00 51 1013.6
20190424122535 61 347 1.7 2.6 0.00 0.00 0.00 52 1013.6
20190424122238 61 347 0.9 2.6 0.00 0.00 0.00 53 1013.6
20190424121935 61 347 0.9 2.6 0.00 0.00 0.00 54 1013.6
20190424121635 61 347 0.9 2.6 0.00 0.00 0.00 54 1013.7
20190424121335 61 345 1.7 2.6 0.00 0.00 0.00 54 1013.7
20190424121035 60 328 1.7 2.6 0.00 0.00 0.00 55 1013.6
20190424120735 60 325 0.9 1.7 0.00 0.00 0.00 54 1013.7
20190424120435 60 325 0.9 1.7 0.00 0.00 0.00 55 1013.7
20190424120135 60 324 0.9 2.6 0.00 0.00 0.00 55 1013.7
20190424115835 61 324 0.9 4.3 0.00 0.00 0.00 54 1013.7
20190424115534 61 324 1.7 4.3 0.00 0.00 0.00 54 1013.7
20190424115237 61 325 1.7 5.2 0.00 0.00 0.00 54 1013.7
20190424114934 60 322 3.5 5.2 0.00 0.00 0.00 56 1013.7
20190424114638 60 327 3.5 5.2 0.00 0.00 0.00 57 1013.7
20190424114337 59 335 3.5 5.2 0.00 0.00 0.00 58 1013.7
20190424113434 58 314 2.6 4.3 0.00 0.00 0.00 58 1013.7
20190424113136 58 312 2.6 4.3 0.00 0.00 0.00 53 1013.7
20190424112836 59 348 0.9 2.6 0.00 0.00 0.00 53 1013.7
20190424112536 59 0 0.0 1.7 0.00 0.00 0.00 53 1013.7
20190424112236 59 0 0.0 1.7 0.00 0.00 0.00 54 1013.7
20190424111934 59 348 0.9 3.5 0.00 0.00 0.00 53 1013.6
20190424111335 59 348 1.7 3.5 0.00 0.00 0.00 56 1013.6
20190424111035 58 345 2.6 3.5 0.00 0.00 0.00 56 1013.6
20190424110441 58 331 2.6 3.5 0.00 0.00 0.00 56 1013.6
20190424110146 57 319 2.6 3.5 0.00 0.00 0.00 55 1013.7
20190424105843 57 307 1.7 3.5 0.00 0.00 0.00 52 1013.7
20190424105540 57 302 0.9 2.6 0.00 0.00 0.00 52 1013.8
20190424105240 58 302 0.9 2.6 0.00 0.00 0.00 50 1013.8
20190424104940 58 302 0.9 2.6 0.00 0.00 0.00 49 1013.8
20190424104341 59 333 0.9 1.7 0.00 0.00 0.00 48 1013.8
20190424104040 60 333 0.9 1.7 0.00 0.00 0.00 47 1013.8
20190424103740 61 333 0.9 2.6 0.00 0.00 0.00 47 1013.8
20190424103443 62 333 0.9 3.5 0.00 0.00 0.00 47 1013.7
20190424102841 62 333 1.7 3.5 0.00 0.00 0.00 50 1013.7
20190424102540 62 332 1.7 2.6 0.00 0.00 0.00 50 1013.7
20190424102119 62 331 2.6 4.3 0.00 0.00 0.00 50 1013.7
20190424101819 62 332 2.6 4.3 0.00 0.00 0.00 51 1013.7
20190424101519 61 332 2.6 4.3 0.00 0.00 0.00 52 1013.7
20190424101221 61 335 3.5 4.3 0.00 0.00 0.00 52 1013.7
20190424100620 60 343 3.5 4.3 0.00 0.00 0.00 55 1013.8
20190424100319 59 334 2.6 3.5 0.00 0.00 0.00 56 1013.7
20190424100019 59 332 2.6 3.5 0.00 0.00 0.00 57 1013.7
20190424095719 59 355 1.7 3.5 0.00 0.00 0.00 54 1013.7
20190424095421 59 355 1.7 2.6 0.00 0.00 0.00 53 1013.7
20190424095119 59 355 1.7 2.6 0.00 0.00 0.00 52 1013.7
20190424094819 59 355 0.9 2.6 0.00 0.00 0.00 52 1013.7
20190424094220 60 355 0.9 2.6 0.00 0.00 0.00 53 1013.7
20190424093619 60 0 0.0 1.7 0.00 0.00 0.00 51 1013.7
20190424093318 60 355 0.9 1.7 0.00 0.00 0.00 55 1013.7
20190424093020 60 0 0.0 1.7 0.00 0.00 0.00 55 1013.7
20190424092719 59 355 0.9 1.7 0.00 0.00 0.00 55 1013.7
20190424092119 60 0 0.0 1.7 0.00 0.00 0.00 54 1013.7
20190424091825 60 0 0.0 1.7 0.00 0.00 0.00 53 1013.8
20190424091522 60 0 0.0 1.7 0.00 0.00 0.00 51 1013.8
20190424091220 60 0 0.0 1.7 0.00 0.00 0.00 49 1013.8
20190424090920 61 348 0.9 1.7 0.00 0.00 0.00 48 1013.8
20190424090619 62 348 0.9 1.7 0.00 0.00 0.00 48 1013.7
20190424090319 63 0 0.0 1.7 0.00 0.00 0.00 49 1013.8
20190424090019 63 0 0.0 2.6 0.00 0.00 0.00 49 1013.8
20190424085721 63 0 0.0 3.5 0.00 0.00 0.00 49 1013.8
20190424085119 63 348 1.7 3.5 0.00 0.00 0.00 49 1013.8
20190424084819 63 347 1.7 3.5 0.00 0.00 0.00 49 1013.8
20190424084519 63 346 2.6 4.3 0.00 0.00 0.00 50 1013.8
20190424084220 63 340 2.6 4.3 0.00 0.00 0.00 50 1013.8
20190424083919 62 345 2.6 4.3 0.00 0.00 0.00 50 1013.8
20190424083620 63 35 1.7 3.5 0.00 0.00 0.00 47 1013.8
20190424083319 63 35 0.9 3.5 0.00 0.00 0.00 47 1013.8
20190424083019 63 35 0.9 3.5 0.00 0.00 0.00 46 1013.9
20190424082719 63 35 1.7 3.5 0.00 0.00 0.00 47 1013.9
20190424082420 64 35 1.7 3.5 0.00 0.00 0.00 48 1013.9
20190424082119 64 35 2.6 3.5 0.00 0.00 0.00 48 1013.9
20190424081819 64 35 1.7 3.5 0.00 0.00 0.00 48 1013.9
20190424081519 64 35 0.9 1.7 0.00 0.00 0.00 48 1013.9
20190424081221 64 0 0.0 1.7 0.00 0.00 0.00 47 1013.9
20190424080920 64 35 0.9 1.7 0.00 0.00 0.00 47 1014.0
20190424080620 64 35 0.9 1.7 0.00 0.00 0.00 47 1014.0
20190424080320 64 35 0.9 1.7 0.00 0.00 0.00 47 1014.1
20190424080019 64 0 0.0 1.7 0.00 0.00 0.00 45 1014.0
20190424075720 64 35 0.9 2.6 0.00 0.00 0.00 44 1014.1
20190424075420 65 35 0.9 3.5 0.00 0.00 0.00 44 1014.1
20190424075120 65 0 0.0 4.3 0.00 0.00 0.00 45 1014.1
20190424074820 65 35 1.7 4.3 0.00 0.00 0.00 45 1014.0
20190424074519 65 35 2.6 4.3 0.00 0.00 0.00 45 1014.0
20190424074220 65 35 3.5 4.3 0.00 0.00 0.00 46 1014.0
20190424073920 65 27 2.6 3.5 0.00 0.00 0.00 46 1014.0
20190424073620 65 10 1.7 3.5 0.00 0.00 0.00 46 1014.0
20190424073320 65 10 0.9 2.6 0.00 0.00 0.00 46 1014.0
20190424073019 65 0 0.0 2.6 0.00 0.00 0.00 44 1014.0
20190424072723 66 10 0.9 2.6 0.00 0.00 0.00 45 1014.0
20190424072120 66 10 0.9 4.3 0.00 0.00 0.00 44 1014.0
20190424071819 66 10 1.7 4.3 0.00 0.00 0.00 45 1013.9
20190424071519 66 4 2.6 4.3 0.00 0.00 0.00 45 1013.9
20190424071220 66 4 2.6 4.3 0.00 0.00 0.00 45 1014.0
20190424070320 66 355 2.6 3.5 0.00 0.00 0.00 45 1014.0
20190424070019 66 339 1.7 3.5 0.00 0.00 0.00 45 1014.0
20190424065721 66 355 2.6 3.5 0.00 0.00 0.00 45 1013.9
20190424065423 66 343 0.9 1.7 0.00 0.00 0.00 45 1013.9
20190424065119 66 0 0.0 1.7 0.00 0.00 0.00 45 1013.9
20190424064519 66 0 0.0 0.9 0.00 0.00 0.00 45 1014.0
20190424064222 66 0 0.0 2.6 0.00 0.00 0.00 45 1014.0
20190424063620 66 343 0.9 2.6 0.00 0.00 0.00 45 1014.0
20190424063320 66 343 1.7 2.6 0.00 0.00 0.00 45 1013.9
20190424063020 66 343 0.9 2.6 0.00 0.00 0.00 45 1014.0
20190424062720 67 343 0.9 2.6 0.00 0.00 0.00 45 1014.0
20190424062419 67 343 1.7 2.6 0.00 0.00 0.00 45 1014.0
20190424062120 67 343 1.7 3.5 0.00 0.00 0.00 45 1014.0
20190424061819 67 343 1.7 3.5 0.00 0.00 0.00 45 1014.0
20190424061521 67 343 2.6 3.5 0.00 0.00 0.00 44 1014.0
20190424061219 67 343 2.6 3.5 0.00 0.00 0.00 45 1014.0
20190424060803 67 343 1.7 3.5 0.00 0.00 0.00 44 1014.0
20190424060141 67 341 2.6 4.3 0.00 0.00 0.00 44 1014.0
20190424055840 67 339 2.6 4.3 0.00 0.00 0.00 44 1014.0
20190424055541 67 346 2.6 4.3 0.00 0.00 0.00 44 1014.0
20190424055240 68 354 2.6 4.3 0.00 0.00 0.00 44 1014.0
20190424054941 68 337 2.6 3.5 0.00 0.00 0.00 44 1014.0
20190424054537 68 317 2.6 3.5 0.00 0.00 0.00 44 1014.0
20190424054238 68 323 2.6 3.5 0.00 0.00 0.00 44 1014.0
20190424053941 68 321 1.7 3.5 0.00 0.00 0.00 44 1014.0
20190424053638 68 309 1.7 3.5 0.00 0.00 0.00 44 1014.0
20190424053338 68 307 1.7 3.5 0.00 0.00 0.00 43 1014.0
20190424052557 68 316 2.6 3.5 0.00 0.00 0.00 43 1014.0
20190424052256 68 313 1.7 3.5 0.00 0.00 0.00 42 1013.9
20190424051957 69 306 1.7 3.5 0.00 0.00 0.00 41 1014.0
20190424051655 69 305 1.7 3.5 0.00 0.00 0.00 40 1014.0
20190424051357 69 316 2.6 3.5 0.00 0.00 0.00 41 1014.0
20190424051055 70 355 2.6 3.5 0.00 0.00 0.00 41 1014.0
20190424050755 70 355 1.7 3.5 0.00 0.00 0.00 41 1014.0
20190424050456 70 355 2.6 4.3 0.00 0.00 0.00 41 1014.0
20190424045855 70 346 2.6 4.3 0.00 0.00 0.00 41 1013.9
20190424045554 70 341 2.6 4.3 0.00 0.00 0.00 41 1014.0
20190424045255 70 354 2.6 4.3 0.00 0.00 0.00 40 1014.0
20190424044956 70 4 2.6 4.3 0.00 0.00 0.00 41 1013.9
20190424044657 70 4 2.6 3.5 0.00 0.00 0.00 41 1013.9
20190424044107 69 309 1.7 2.6 0.00 0.00 0.00 42 1013.9
20190424043756 69 296 0.9 2.6 0.00 0.00 0.00 42 1013.9
20190424043456 69 296 0.9 2.6 0.00 0.00 0.00 41 1013.9
20190424043155 69 295 0.9 2.6 0.00 0.00 0.00 41 1013.9
20190424042855 69 295 0.9 2.6 0.00 0.00 0.00 40 1013.8
20190424042555 69 299 1.7 2.6 0.00 0.00 0.00 40 1013.7
20190424042256 69 306 0.9 2.6 0.00 0.00 0.00 41 1013.7
20190424041955 69 0 0.0 2.6 0.00 0.00 0.00 40 1013.7
20190424041658 70 306 0.9 2.6 0.00 0.00 0.00 39 1013.6
20190424041356 70 306 0.9 2.6 0.00 0.00 0.00 39 1013.6
20190424041056 70 306 0.9 2.6 0.00 0.00 0.00 39 1013.6
20190424040755 71 0 0.0 2.6 0.00 0.00 0.00 38 1013.6
20190424040455 71 306 0.9 3.5 0.00 0.00 0.00 38 1013.5
20190424040156 72 309 1.7 3.5 0.00 0.00 0.00 37 1013.5
20190424035855 72 318 1.7 3.5 0.00 0.00 0.00 37 1013.4
20190424035555 72 333 0.9 3.5 0.00 0.00 0.00 37 1013.4
20190424035255 73 0 0.0 3.5 0.00 0.00 0.00 36 1013.4
20190424034954 73 331 0.9 3.5 0.00 0.00 0.00 36 1013.3
20190424034655 73 320 1.7 3.5 0.00 0.00 0.00 36 1013.3
20190424034355 74 314 1.7 3.5 0.00 0.00 0.00 35 1013.3
20190424034057 74 306 2.6 3.5 0.00 0.00 0.00 33 1013.3
20190424033755 75 311 2.6 3.5 0.00 0.00 0.00 32 1013.2
20190424033455 75 26 0.9 2.6 0.00 0.00 0.00 33 1013.1
20190424033157 76 0 0.0 2.6 0.00 0.00 0.00 31 1013.1
20190424032855 77 26 0.9 2.6 0.00 0.00 0.00 32 1013.1
20190424032555 77 26 0.9 2.6 0.00 0.00 0.00 32 1013.0
20190424032209 77 26 1.7 3.5 0.00 0.00 0.00 32 1013.0
20190424031909 77 26 1.7 3.5 0.00 0.00 0.00 32 1012.9
20190424031608 78 26 1.7 2.6 0.00 0.00 0.00 31 1012.9
20190424031311 78 26 1.7 2.6 0.00 0.00 0.00 31 1012.9
20190424031008 79 26 0.9 2.6 0.00 0.00 0.00 31 1012.9
20190424030708 79 26 0.9 2.6 0.00 0.00 0.00 30 1012.8
20190424030409 79 26 0.9 2.6 0.00 0.00 0.00 30 1012.8
20190424025808 80 0 0.0 2.6 0.00 0.00 0.00 29 1012.7
20190424025510 80 0 0.0 2.6 0.00 0.00 0.00 29 1012.7
20190424025210 81 26 0.9 2.6 0.00 0.00 0.00 28 1012.7
20190424024910 81 26 0.9 2.6 0.00 0.00 0.00 28 1012.7
20190424024608 81 0 0.0 2.6 0.00 0.00 0.00 28 1012.7
20190424024310 81 26 0.9 2.6 0.00 0.00 0.00 28 1012.6
20190424024012 82 0 0.0 1.7 0.00 0.00 0.00 27 1012.6
20190424023709 82 0 0.0 1.7 0.00 0.00 0.00 27 1012.6
20190424023408 82 0 0.0 1.7 0.00 0.00 0.00 27 1012.5
20190424022808 83 0 0.0 4.3 0.00 0.00 0.00 27 1012.5
20190424022511 83 0 0.0 7.0 0.00 0.00 0.00 27 1012.5
20190424022210 83 26 0.9 7.0 0.00 0.00 0.00 27 1012.5
20190424021913 83 45 2.6 7.0 0.00 0.00 0.00 26 1012.4
20190424021608 83 51 2.6 7.0 0.00 0.00 0.00 26 1012.5
20190424021308 84 27 2.6 6.1 0.00 0.00 0.00 26 1012.5
20190424021008 84 32 2.6 8.7 0.00 0.00 0.00 25 1012.5
20190424020713 84 31 3.5 8.7 0.00 0.00 0.00 25 1012.5
20190424020409 84 28 4.3 8.7 0.00 0.00 0.00 25 1012.4
20190424020110 84 40 3.5 8.7 0.00 0.00 0.00 24 1012.5
20190424015811 84 25 4.3 8.7 0.00 0.00 0.00 24 1012.5
20190424015509 84 37 6.1 8.7 0.00 0.00 0.00 24 1012.4
20190424015208 85 36 4.3 7.8 0.00 0.00 0.00 24 1012.6
20190424014908 85 35 4.3 8.7 0.00 0.00 0.00 25 1012.5
20190424014608 85 31 3.5 8.7 0.00 0.00 0.00 25 1012.6
20190424014009 85 28 4.3 8.7 0.00 0.00 0.00 25 1012.5
20190424013711 85 36 5.2 8.7 0.00 0.00 0.00 24 1012.5
20190424013408 85 36 5.2 8.7 0.00 0.00 0.00 24 1012.5
20190424013111 85 26 4.3 8.7 0.00 0.00 0.00 24 1012.5
20190424012808 85 36 4.3 8.7 0.00 0.00 0.00 25 1012.5
20190424012508 85 49 4.3 8.7 0.00 0.00 0.00 24 1012.5
20190424012211 85 15 3.5 8.7 0.00 0.00 0.00 25 1012.5
20190424011909 85 12 4.3 9.6 0.00 0.00 0.00 25 1012.5
20190424011608 85 28 4.3 9.6 0.00 0.00 0.00 25 1012.5
20190424011312 85 37 6.1 10.4 0.00 0.00 0.00 25 1012.5
20190424011008 85 42 4.3 10.4 0.00 0.00 0.00 25 1012.6
20190424010711 86 32 4.3 10.4 0.00 0.00 0.00 25 1012.6
20190424005808 86 24 5.2 12.2 0.00 0.00 0.00 24 1012.7
20190424005510 86 26 6.1 12.2 0.00 0.00 0.00 25 1012.6
20190424005208 86 3 7.8 11.3 0.00 0.00 0.00 25 1012.6
20190424004909 86 35 6.1 11.3 0.00 0.00 0.00 24 1012.7
20190424004608 86 25 7.0 11.3 0.00 0.00 0.00 25 1012.7
20190424004311 86 32 6.1 11.3 0.00 0.00 0.00 24 1012.7
20190424004008 86 349 7.8 12.2 0.00 0.00 0.00 24 1012.7
20190424003718 86 8 6.1 13.9 0.00 0.00 0.00 24 1012.9
20190424003409 86 7 6.1 13.9 0.00 0.00 0.00 25 1012.7
20190424003108 86 18 6.1 13.9 0.00 0.00 0.00 24 1012.6
20190424002808 86 12 9.6 13.9 0.00 0.00 0.00 24 1012.8
20190424002513 86 32 6.1 13.0 0.00 0.00 0.00 24 1012.8
20190424002209 86 28 8.7 13.0 0.00 0.00 0.00 24 1012.8
20190424001916 86 18 6.1 11.3 0.00 0.00 0.00 25 1012.8
20190424001608 86 29 5.2 11.3 0.00 0.00 0.00 24 1012.8
20190424000950 86 27 2.6 9.6 0.00 0.00 0.00 23 1013.0
20190424000632 86 22 7.0 12.2 0.00 0.00 0.00 23 1013.0
20190424000028 86 42 7.8 12.2 0.00 0.00 0.00 24 1012.8
20190423235728 87 43 6.1 9.6 0.00 0.00 0.00 25 1012.9
20190423235430 87 53 4.3 9.6 0.00 0.00 0.00 24 1012.9
20190423235133 86 360 3.5 9.6 0.00 0.00 0.00 24 1012.9
20190423234828 86 43 6.1 9.6 0.00 0.00 0.00 25 1013.1
20190423234230 86 42 3.5 11.3 0.00 0.00 0.00 25 1012.9
20190423233928 86 51 6.1 11.3 0.00 0.00 0.00 23 1012.9
20190423233634 86 38 2.6 11.3 0.00 0.00 0.00 25 1012.9
20190423233329 87 17 6.1 12.2 0.00 0.00 0.00 24 1013.0
20190423233028 87 19 4.3 12.2 0.00 0.00 0.00 25 1013.0
20190423232745 87 6 8.7 12.2 0.00 0.00 0.00 25 1013.3
20190423232428 86 356 6.1 14.8 0.00 0.00 0.00 25 1013.0
20190423232130 86 24 6.1 14.8 0.00 0.00 0.00 24 1013.1
20190423231831 86 30 8.7 14.8 0.00 0.00 0.00 22 1012.9
20190423231528 86 29 5.2 8.7 0.00 0.00 0.00 23 1013.0
20190423231229 86 5 6.1 10.4 0.00 0.00 0.00 24 1013.1
20190423230929 86 64 6.1 10.4 0.00 0.00 0.00 24 1013.0
20190423230633 86 21 3.5 10.4 0.00 0.00 0.00 24 1013.3
20190423230329 87 39 7.8 12.2 0.00 0.00 0.00 22 1013.3
20190423230029 87 34 4.3 12.2 0.00 0.00 0.00 21 1013.4
20190423225728 87 4 5.2 12.2 0.00 0.00 0.00 22 1013.3
20190423225429 87 357 7.8 12.2 0.00 0.00 0.00 22 1013.2
20190423225129 86 16 5.2 12.2 0.00 0.00 0.00 21 1013.3
20190423224829 86 327 7.8 11.3 0.00 0.00 0.00 20 1013.3
20190423224528 86 2 5.2 11.3 0.00 0.00 0.00 22 1013.6
20190423224232 86 360 7.0 11.3 0.00 0.00 0.00 24 1013.6
20190423223928 86 18 6.1 11.3 0.00 0.00 0.00 21 1013.6
20190423223629 86 41 4.3 11.3 0.00 0.00 0.00 23 1013.4
20190423223329 86 22 4.3 11.3 0.00 0.00 0.00 21 1013.4
20190423223030 86 3 7.8 11.3 0.00 0.00 0.00 24 1013.5
20190423222728 85 39 6.1 13.9 0.00 0.00 0.00 24 1013.4
20190423222429 85 48 7.8 13.9 0.00 0.00 0.00 25 1013.7
20190423222129 85 23 7.0 13.9 0.00 0.00 0.00 23 1013.7
20190423221829 86 34 7.0 13.9 0.00 0.00 0.00 25 1013.7
20190423221529 86 69 4.3 10.4 0.00 0.00 0.00 25 1013.6
20190423220929 86 4 4.3 9.6 0.00 0.00 0.00 24 1013.7
20190423220629 86 26 6.1 10.4 0.00 0.00 0.00 24 1013.7
20190423220328 86 23 4.3 10.4 0.00 0.00 0.00 27 1013.9
20190423220029 86 21 5.2 10.4 0.00 0.00 0.00 25 1014.0
20190423215729 86 31 4.3 10.4 0.00 0.00 0.00 25 1014.0
20190423215428 85 37 2.6 10.4 0.00 0.00 0.00 24 1013.9
20190423215129 85 23 7.0 10.4 0.00 0.00 0.00 25 1013.9
20190423214643 85 39 2.6 9.6 0.00 0.00 0.00 24 1013.9
20190423214344 85 67 5.2 13.9 0.00 0.00 0.00 25 1014.2
20190423214045 85 23 6.1 13.9 0.00 0.00 0.00 26 1014.1
20190423213744 85 21 7.0 13.9 0.00 0.00 0.00 26 1014.2
20190423213144 86 11 7.8 11.3 0.00 0.00 0.00 27 1014.1
20190423212844 85 80 2.6 8.7 0.00 0.00 0.00 24 1014.1
20190423212544 85 25 4.3 11.3 0.00 0.00 0.00 26 1014.3
20190423212246 85 55 3.5 11.3 0.00 0.00 0.00 25 1014.3
20190423211944 85 18 5.2 11.3 0.00 0.00 0.00 26 1014.4
20190423211344 85 28 4.3 10.4 0.00 0.00 0.00 26 1014.2
20190423211043 86 40 2.6 10.4 0.00 0.00 0.00 25 1014.1
20190423210744 86 64 1.7 10.4 0.00 0.00 0.00 25 1014.4
20190423210444 86 304 3.5 10.4 0.00 0.00 0.00 25 1014.3
20190423210144 86 348 7.8 10.4 0.00 0.00 0.00 28 1014.4
20190423205845 85 25 3.5 8.7 0.00 0.00 0.00 27 1014.4
20190423205545 85 85 4.3 11.3 0.00 0.00 0.00 27 1014.3
20190423205244 85 112 2.6 11.3 0.00 0.00 0.00 27 1014.3
20190423204945 85 51 4.3 11.3 0.00 0.00 0.00 27 1014.3
20190423204647 85 18 7.0 11.3 0.00 0.00 0.00 27 1014.6
20190423204344 85 42 3.5 9.6 0.00 0.00 0.00 27 1014.5
20190423204044 85 41 4.3 8.7 0.00 0.00 0.00 27 1014.5
20190423203744 85 23 2.6 8.7 0.00 0.00 0.00 26 1014.6
20190423203444 85 23 4.3 8.7 0.00 0.00 0.00 29 1014.5
20190423202936 84 288 0.9 7.0 0.00 0.00 0.00 27 1014.7
20190423202335 84 52 2.6 7.8 0.00 0.00 0.00 29 1014.7
20190423202036 84 53 2.6 7.8 0.00 0.00 0.00 26 1014.8
20190423201525 84 36 4.3 10.4 0.00 0.00 0.00 27 1014.7
20190423201222 85 37 4.3 7.8 0.00 0.00 0.00 29 1014.8
20190423200923 85 342 1.7 5.2 0.00 0.00 0.00 28 1014.9
20190423200623 84 212 1.7 7.0 0.00 0.00 0.00 26 1014.9
20190423200323 84 252 2.6 7.0 0.00 0.00 0.00 26 1014.8
20190423200038 84 245 3.5 7.0 0.00 0.00 0.00 26 1014.9
20190423195722 84 252 1.7 6.1 0.00 0.00 0.00 26 1014.8
20190423195423 84 305 0.9 6.1 0.00 0.00 0.00 26 1014.9
20190423195123 84 288 3.5 6.1 0.00 0.00 0.00 27 1014.9
20190423194822 83 290 0.9 7.0 0.00 0.00 0.00 26 1015.0
20190423194525 83 215 2.6 7.0 0.00 0.00 0.00 27 1015.1
20190423194222 82 224 2.6 7.0 0.00 0.00 0.00 27 1015.1
20190423193923 82 213 4.3 7.0 0.00 0.00 0.00 27 1015.1
20190423193622 82 218 4.3 6.1 0.00 0.00 0.00 27 1015.2
20190423193322 82 196 0.9 7.0 0.00 0.00 0.00 27 1015.2
20190423192722 83 218 1.7 7.8 0.00 0.00 0.00 26 1015.4
20190423192422 83 262 4.3 7.8 0.00 0.00 0.00 26 1015.4
20190423192122 82 324 2.6 6.1 0.00 0.00 0.00 28 1015.4
20190423191822 82 22 2.6 4.3 0.00 0.00 0.00 28 1015.5
20190423191526 82 38 0.9 4.3 0.00 0.00 0.00 29 1015.5
20190423191222 82 153 0.9 5.2 0.00 0.00 0.00 29 1015.5
20190423190922 82 175 1.7 5.2 0.00 0.00 0.00 32 1015.6
20190423190625 82 171 2.6 6.1 0.00 0.00 0.00 33 1015.7
20190423190323 82 106 1.7 6.1 0.00 0.00 0.00 29 1015.9
20190423190024 81 71 1.7 6.1 0.00 0.00 0.00 28 1016.0
20190423185722 81 68 2.6 6.1 0.00 0.00 0.00 31 1015.8
20190423185422 81 47 2.6 6.1 0.00 0.00 0.00 30 1015.8
20190423185122 81 37 1.7 4.3 0.00 0.00 0.00 31 1015.8
20190423184822 81 113 0.9 4.3 0.00 0.00 0.00 32 1015.8
20190423184528 80 0 0.0 4.3 0.00 0.00 0.00 29 1015.9
20190423184222 80 98 0.9 7.8 0.00 0.00 0.00 31 1016.1
20190423183923 79 41 0.9 7.8 0.00 0.00 0.00 31 1016.1
20190423183623 80 40 3.5 10.4 0.00 0.00 0.00 30 1016.1
20190423183322 80 36 3.5 10.4 0.00 0.00 0.00 31 1016.1
20190423182723 80 35 1.7 7.0 0.00 0.00 0.00 31 1016.2
20190423182422 80 348 3.5 7.0 0.00 0.00 0.00 31 1016.2
20190423182122 80 115 0.9 6.1 0.00 0.00 0.00 32 1016.2
20190423181823 79 47 2.6 7.8 0.00 0.00 0.00 31 1016.1
20190423181523 79 347 2.6 7.8 0.00 0.00 0.00 30 1016.1
20190423181222 79 290 4.3 7.8 0.00 0.00 0.00 30 1016.1
20190423180922 79 314 0.9 8.7 0.00 0.00 0.00 30 1016.3
20190423180622 79 33 3.5 8.7 0.00 0.00 0.00 31 1016.3
20190423180323 79 54 3.5 8.7 0.00 0.00 0.00 33 1016.3
20190423180024 79 42 3.5 6.1 0.00 0.00 0.00 31 1016.2
20190423175722 79 76 2.6 7.8 0.00 0.00 0.00 32 1016.2